Location: Wiesbaden
(50.0830°N, 8.2500°E)
Time: 05:58:46
(UTC+02:00)

ISS - Pass Details

Date: 30 March 2020
Orbit: 417 x 423 km, 51.6° (Epoch: 29 March)

Event Time Altitude Azimuth Distance (km) Brightness Sun altitude
Rises 20:54:50 0° 283° (WNW) 2,362 2.3 -9.9°
Reaches altitude 10° 20:56:56 10° 285° (WNW) 1,498 0.7 -10.2°
Maximum altitude 21:00:18 80° 12° (NNE) 430 -3.7 -10.8°
Enters shadow 21:02:43 18° 99° (E) 1,119 -2.2 -11.1°
